This is the latest recevied weather packets stored in our database for station/object OK1TOM-6. If no packets are shown the sender has not sent any weather packets the latest 10 day(s).
| Time | Temp. | Humidity | Pressure | Rain* | Wind** | Luminosity | Snow |
|---|---|---|---|---|---|---|---|
| 1778239571 | 9.44° C | 78% | 1020.4 hPa | 0 mm | - | - | - |
| 1778238968 | 10° C | 78% | 1020.3 hPa | 0 mm | - | - | - |
| 1778238365 | 10° C | 78% | 1020.3 hPa | 0 mm | - | - | - |
| 1778237761 | 10° C | 79% | 1020.3 hPa | 0 mm | - | - | - |
| 1778237158 | 10° C | 80% | 1020.4 hPa | 0 mm | - | - | - |
| 1778236554 | 10° C | 82% | 1020.2 hPa | 0 mm | - | - | - |
| 1778235951 | 8.89° C | 86% | 1020.3 hPa | 0.25 mm | - | - | - |
| 1778235347 | 8.33° C | 90% | 1020.3 hPa | 0.25 mm | - | - | - |
| 1778234744 | 8.33° C | 90% | 1020.4 hPa | 0.25 mm | - | - | - |
| 1778234141 | 8.33° C | 89% | 1020.5 hPa | 0.25 mm | - | - | - |
| 1778233537 | 8.33° C | 91% | 1020.5 hPa | 0.25 mm | - | - | - |
| 1778232934 | 8.33° C | 91% | 1020.5 hPa | 0.25 mm | - | - | - |
| 1778232330 | 8.33° C | 90% | 1020.5 hPa | 0 mm | - | - | - |
| 1778231727 | 8.33° C | 91% | 1020.5 hPa | 0 mm | - | - | - |
| 1778231123 | 8.33° C | 90% | 1020.5 hPa | 0 mm | - | - | - |
| 1778230520 | 8.33° C | 88% | 1020.5 hPa | 0 mm | - | - | - |
| 1778229917 | 8.33° C | 87% | 1020.3 hPa | 0 mm | - | - | - |
| 1778229373 | 8.33° C | 88% | 1020.3 hPa | 0 mm | - | - | - |
| 1778228770 | 7.78° C | 88% | 1020.4 hPa | 0 mm | - | - | - |
| 1778228167 | 7.78° C | 89% | 1020.3 hPa | 0 mm | - | - | - |
| 1778227563 | 7.78° C | 89% | 1020.2 hPa | 0 mm | - | - | - |
| 1778226960 | 7.78° C | 91% | 1020.1 hPa | 0 mm | - | - | - |
| 1778226356 | 7.78° C | 90% | 1020.1 hPa | 0 mm | - | - | - |
| 1778225753 | 7.78° C | 89% | 1020 hPa | 0 mm | - | - | - |
| 1778225149 | 7.22° C | 91% | 1019.9 hPa | 0 mm | - | - | - |
* Rain latest hour (hover to see other rain measurements)
** Current wind speed in m/s (hover to see current wind gust speed)